Bloomington, IL

5:29 AM CDT on September 26, 2016 (GMT -0500)
Central Ill Regional

Weather History for KBMI - February, 2013

Change the Weather History Date:

Saturday, February 23, 2013

  Actual Average Record
Temperature  
Mean Temperature 22 °F -  
Max Temperature 26 °F 43 °F 50 °F (1998)
Min Temperature 19 °F 33 °F -1 °F (2015)
Degree Days  
Heating Degree Days 42    
Moisture  
Dew Point 18 °F    
Average Humidity 80    
Maximum Humidity 93    
Minimum Humidity 69    
Precipitation  
Precipitation 0.00 in - - ()
Sea Level Pressure  
Sea Level Pressure 30.03 in    
Wind  
Wind Speed 10 mph (WSW)    
Max Wind Speed 13 mph    
Max Gust Speed 20 mph    
Visibility 10 miles    
Events      
Averages and records for this station are not official NWS values.
T = Trace of Precipitation, MM = Missing Value Source: NWS Daily Summary

Daily Weather History Graph

Daily Weather History Graph

Search for Another Location

Airport or City:

Trip Planner

Search our weather history database for the weather conditions in past years. The results will help you decide how hot, cold, wet, or windy it might be!

Date:

Astronomy

Feb. 23, 2013 Rise Set
Actual Time 6:37 AM CST 5:40 PM CST
Civil Twilight 6:10 AM CST 6:08 PM CST
Nautical Twilight 5:38 AM CST 6:39 PM CST
Astronomical Twilight 5:07 AM CST 7:11 PM CST
Moon 3:50 PM CST (2/23) 5:00 AM CST (2/23)
Length of Visible Light 11h 57m
Length of Day
11h 02m
Waxing Gibbous, 95% of the Moon is Illuminated
Feb 23
Waxing Gibbous
Feb 25
Full
Mar 4
Last Quarter
Mar 11
New
Mar 19
First Quarter

Hourly Weather History & Observations

Time (CST) Temp. Windchill Dew Point Humidity Pressure Visibility Wind Dir Wind Speed Gust Speed Precip Events Conditions
12:56 AM 25.2 °F 13.9 °F 21.0 °F 84% 30.03 in 10.0 mi WSW 12.7 mph - N/A   Overcast
1:56 AM 25.2 °F 13.9 °F 21.0 °F 84% 30.03 in 10.0 mi WSW 12.7 mph - N/A   Overcast
2:48 AM 24.8 °F 14.6 °F 19.4 °F 80% 29.97 in 10.0 mi WSW 10.4 mph - N/A   Overcast
2:56 AM 23.0 °F 12.4 °F 19.0 °F 85% 30.03 in 10.0 mi West 10.4 mph - N/A   Overcast
3:23 AM 21.2 °F 10.9 °F 17.6 °F 86% 29.97 in 10.0 mi WSW 9.2 mph - N/A   Scattered Clouds
3:56 AM 20.1 °F 10.3 °F 17.1 °F 88% 30.04 in 10.0 mi WSW 8.1 mph - N/A   Clear
4:32 AM 19.4 °F 10.4 °F 17.6 °F 93% 29.98 in 8.0 mi West 6.9 mph - N/A   Mostly Cloudy
4:56 AM 21.0 °F 12.4 °F 17.1 °F 85% 30.03 in 10.0 mi WSW 6.9 mph - N/A   Overcast
5:56 AM 22.1 °F 12.0 °F 17.1 °F 81% 30.05 in 10.0 mi WSW 9.2 mph - N/A   Overcast
6:56 AM 22.1 °F 12.8 °F 16.2 °F 78% 30.04 in 10.0 mi West 8.1 mph - N/A   Overcast
7:56 AM 23.0 °F 14.7 °F 16.2 °F 75% 30.05 in 10.0 mi West 6.9 mph - N/A   Overcast
8:56 AM 23.0 °F 13.9 °F 16.2 °F 75% 30.05 in 10.0 mi West 8.1 mph - 0.00 in   Mostly Cloudy
9:56 AM 24.1 °F 14.4 °F 16.2 °F 72% 30.06 in 10.0 mi West 9.2 mph - N/A   Overcast
10:56 AM 25.2 °F 13.9 °F 16.2 °F 69% 30.04 in 10.0 mi West 12.7 mph 19.6 mph N/A   Overcast
11:56 AM 25.2 °F 15.7 °F 18.1 °F 75% 30.04 in 10.0 mi WSW 9.2 mph - N/A   Overcast
12:56 PM 26.1 °F 16.8 °F 17.1 °F 69% 30.02 in 10.0 mi West 9.2 mph - N/A   Mostly Cloudy
1:56 PM 26.1 °F 15.6 °F 18.1 °F 72% 30.02 in 10.0 mi SW 11.5 mph - N/A   Mostly Cloudy
2:56 PM 26.1 °F 16.2 °F 19.0 °F 75% 30.02 in 10.0 mi West 10.4 mph - N/A   Overcast
3:56 PM 25.2 °F 13.9 °F 19.0 °F 78% 30.03 in 10.0 mi WSW 12.7 mph - N/A   Mostly Cloudy
4:56 PM 26.1 °F 16.2 °F 19.0 °F 75% 30.03 in 10.0 mi West 10.4 mph - N/A   Mostly Cloudy
5:03 PM 26.6 °F 16.8 °F 19.4 °F 74% 29.97 in 10.0 mi WSW 10.4 mph - N/A   Scattered Clouds
5:56 PM 25.2 °F 15.7 °F 19.0 °F 78% 30.04 in 10.0 mi WSW 9.2 mph - N/A   Clear
6:56 PM 24.1 °F 16.0 °F 19.0 °F 81% 30.05 in 10.0 mi WSW 6.9 mph - N/A   Clear
7:56 PM 22.1 °F 14.7 °F 18.1 °F 85% 30.05 in 9.0 mi WSW 5.8 mph - N/A   Clear
8:56 PM 21.0 °F 12.4 °F 18.1 °F 89% 30.06 in 9.0 mi WSW 6.9 mph - N/A   Clear
10:56 PM 21.0 °F 13.4 °F 17.1 °F 85% 30.06 in 9.0 mi West 5.8 mph - N/A   Clear
11:56 PM 20.1 °F 13.6 °F 17.1 °F 88% 30.06 in 9.0 mi West 4.6 mph - N/A   Clear